Location: Newark
(49.8348°N, 24.0280°E)
Time: 04:13:25
(UTC+00:00)

Transit 2A - Pass Details

Date: 27 January 2020
Orbit: 600 x 959 km, 66.7° (Epoch: 16 February)

Event Time Altitude Azimuth Distance (km) Brightness Sun altitude
Rises 20:11:25 0° 270° (W) 2,852 - -47.3°
Reaches altitude 10° 20:14:24 10° 292° (WNW) 1,949 - -47.7°
Maximum altitude 20:17:11 16° 332° (NNW) 1,582 - -48.0°
Drops below altitude 10° 20:20:01 10° 12° (NNE) 1,987 - -48.4°
Sets 20:23:07 0° 34° (NE) 2,937 - -48.8°
